Simultaneous Nadir Overpasses (SNOs) Predictions

Prediction of SNOs between GOES-15 and METOP-A Satellite Orbit:

Table of predicted SNOs for the next 14.0 days since TLE Epoch: 12/14/2013
Index Date Time (GOES-15) GOES-15 Lat,Lon METOP-A Lat,Lon Distance(km) Time Diff (sec)
1 12/15/2013 06:26:43 0.15,-135.25 0.28,-134.71 61.66 80
2 12/16/2013 18:48:15 -0.13,-135.18 0.80,-139.27 465.51 80
3 12/17/2013 18:24:56 -0.14,-135.16 -0.36,-134.28 100.65 80
4 12/19/2013 06:46:36 0.12,-135.16 -0.71,-138.87 423.06 80
5 12/20/2013 06:23:16 0.13,-135.13 0.40,-133.87 142.65 80
6 12/21/2013 18:44:47 -0.10,-135.05 0.67,-138.43 385.45 80
7 12/22/2013 18:21:28 -0.12,-135.02 -0.44,-133.43 180.20 80
8 12/24/2013 06:43:08 0.09,-135.01 -0.55,-138.04 344.16 80
9 12/25/2013 06:19:49 0.11,-134.98 0.56,-133.04 220.97 80
10 12/26/2013 18:41:20 -0.09,-134.89 0.49,-137.60 308.41 80
11 12/27/2013 18:18:01 -0.10,-134.85 -0.63,-132.61 256.39 80




NCC Satellite Simultaneous Nadir Overpasses (SNOs) Prediction Service
